Location: Unspecified
(0.0000°N, 0.0000°E)
Time: 18:13:40
(UTC+00:00)

Vanguard 2 Rocket - Pass Details

Date: 24 January 2020
Orbit: 554 x 3327 km, 32.9° (Epoch: 20 February)

Event Time Altitude Azimuth Distance (km) Brightness Sun altitude
Rises 10:48:19 0° 323° (NW) 4,765 10.3 61.9°
Reaches altitude 10° 10:51:15 10° 331° (NNW) 4,111 10.1 62.4°
Maximum altitude 11:02:27 42° 39° (NE) 3,254 10.3 64.3°
Drops below altitude 10° 11:19:30 10° 104° (ESE) 6,162 11.5 66.8°
Sets 11:25:05 0° 109° (ESE) 7,300 11.7 67.6°
